Regional Weather Roundup
Issued by NWS

Current Version | Previous Version | Text Only | Print | Product List | Glossary On
Versions: 1 2 3 4 5 6 7 8 9 10 11 12 13 14 15 16 17 18 19 20 21 22 23 24 25 26 27 28 29 30 31 32 33 34 35 36 37 38 39 40 41 42 43 44 45 46 47 48 49 50
000
ASUS44 KMEG 020310
RWRTN
TENNESSEE HOURLY STATE WEATHER ROUNDUP
NATIONAL WEATHER SERVICE MEMPHIS TN
1000 PM CDT FRI JUL 01 2016

TNZ002-004-019-021-049-052-054-088>092-020400-
WEST TENNESSEE

CITY           SKY/WX    TMP DP  RH WIND       PRES   REMARKS
MEMPHIS INTL   CLOUDY    84  66  54 NE7       30.03R
NWS MEMPHIS      N/A     80 N/A N/A MISG        N/A
JACKSON        CLOUDY    76  70  82 N3        30.04R
DYERSBURG      CLOUDY    75  66  73 MISG      30.04R
UNION CITY     CLEAR     75  72  88 CALM      30.04R
PARIS          CLEAR     70  64  83 CALM      30.05R
LEXINGTON      CLEAR     75  68  78 CALM      30.04R
$$

TNZ008-025-027-028-033-062-065-066-020400-
NORTH MIDDLE TENNESSEE

CITY           SKY/WX    TMP DP  RH WIND       PRES   REMARKS
NASHVILLE      PTCLDY    80  67  64 N6        30.03R
CLARKSVILLE    CLEAR     73  66  78 N6        30.04R
SMYRNA         PTCLDY    77  70  79 NW3       30.03R
COOKEVILLE     PTCLDY    73  72  94 CALM      30.04R
CROSSVILLE     CLOUDY    70  65  84 W5        30.09R
$$

TNZ061-075-076-078-094-096-097-020400-
SOUTH MIDDLE TENNESSEE

CITY           SKY/WX    TMP DP  RH WIND       PRES   REMARKS
FAYETTEVILLE   PTCLDY    79  70  73 N6        30.04R
TULLAHOMA      CLEAR     75  70  83 CALM      30.06R
WINCHESTER     PTCLDY    75  70  83 N3        30.04R
MCMINNVILLE    CLEAR     72  70  94 CALM      30.05S
COLUMBIA       CLEAR     75  75 100 CALM      30.03R
SHELBYVILLE    CLEAR     75  72  88 CALM      30.04S
$$

TNZ017-018-042-046-047-020400-
NORTHEAST TENNESSEE

CITY           SKY/WX    TMP DP  RH WIND       PRES   REMARKS
TRI CITIES     CLEAR     71  63  75 CALM      30.05R
ELIZABETHTON   CLEAR     68  63  83 CALM      30.06R
$$

TNZ012-013-036-069-073-074-020400-
CENTRAL EAST TENNESSEE

CITY           SKY/WX    TMP DP  RH WIND       PRES   REMARKS
KNOXVILLE      PTCLDY    79  62  56 SW3       30.01R
OAK RIDGE      PTCLDY    78  67  68 CALM      30.04R
GATLINBURG     CLEAR     73  61  64 SE3       30.03R
MORRISTOWN     PTCLDY    73  63  68 CALM      30.04R
$$

TNZ083-085-099-020400-
SOUTHEAST TENNESSEE

CITY           SKY/WX    TMP DP  RH WIND       PRES   REMARKS
CHATTANOOGA    PTCLDY    83  64  52 NE6       30.01R
$$

SKY/WX REPORTED AS FAIR MEANS FEW OR NO CLOUDS BELOW
12 THOUSAND FEET.





USA.gov is the U.S. government's official web portal to all federal, state and local government web resources and services.